Location: Weatherford
(35.5260°N, 98.7070°W)
Time: 21:59:19
(UTC-05:00)

OPAL - Visible Passes

Search period start: 26 August 2016 00:00
Search period end: 05 September 2016 00:00
Orbit: 743 x 796 km, 100.2° (Epoch: 25 August)

Date Brightness Start Highest point End Pass type
(mag) Time Alt. Az. Time Alt. Az. Time Alt. Az.
26 Aug 8.9 03:52:01 10° NNE 03:54:48 34° NNE 03:54:48 34° NNE visible
27 Aug 9.7 03:16:51 10° NNE 03:18:48 22° NE 03:18:48 22° NE visible
27 Aug 9.2 04:56:29 10° NNW 04:59:05 20° NW 04:59:05 20° NW visible
28 Aug 10.4 02:42:36 10° NE 02:42:48 11° NE 02:42:48 11° NE visible
28 Aug 8.8 04:20:12 10° N 04:23:06 31° NNW 04:23:06 31° NNW visible
29 Aug 9.2 03:44:35 10° NNE 03:47:06 30° NNE 03:47:06 30° NNE visible
29 Aug 9.6 05:26:10 10° NW 05:27:23 12° NW 05:27:23 12° NW visible
30 Aug 10.0 03:09:36 10° NE 03:11:05 18° NE 03:11:05 18° NE visible
30 Aug 9.1 04:48:43 10° NNW 04:51:23 22° NW 04:51:23 22° NW visible
31 Aug 8.9 04:12:39 10° N 04:15:23 31° N 04:15:23 31° N visible
01 Sep 9.5 03:37:12 10° NNE 03:39:23 26° NNE 03:39:23 26° NNE visible
01 Sep 9.5 05:17:51 10° NNW 05:19:40 14° NW 05:19:40 14° NW visible
02 Sep 10.2 03:02:26 10° NE 03:03:22 14° NE 03:03:22 14° NE visible
02 Sep 9.0 04:41:02 10° N 04:43:40 25° NNW 04:43:40 25° NNW visible
03 Sep 9.1 04:05:10 10° N 04:07:40 30° N 04:07:40 30° N visible
04 Sep 9.7 03:29:52 10° NNE 03:31:39 21° NE 03:31:39 21° NE visible
04 Sep 9.4 05:09:52 10° NNW 05:11:57 17° NW 05:11:57 17° NW visible
